[[{"header":{"parameterUnit":"m.s-1","parameterCategory":1,"la1":30.2992,"la2":30.254,"lo1":-89.0895,"lo2":-89.0443,"dy":0.0025,"dx":0.0025,"nx":19,"ny":19,"refTime":"2026-03-07T03:00:00:Z","depth":0,"parameterNumber":2,"parameterNumberName":"U-component_of_WINDS"},"data":[0,0,0,-3.5826,-3.5828,-3.5938,-3.5938,-3.6079,-3.608,0,0,0,0,0,0,0,0,0,0,0,-3.5793,-3.5794,-3.5826,-3.5829,-3.5938,-3.5938,-3.6079,-3.608,0,0,0,0,0,0,0,0,0,0,0,-3.5793,-3.5794,-3.5795,-3.5829,-3.5938,-3.5938,-3.6078,-3.5996,0,0,0,0,0,0,0,0,0,0,-3.589,-3.5859,-3.5794,-3.5795,-3.583,-3.5937,-3.5938,-3.5992,-3.6001,-3.603,0,-3.6054,0,-3.607,-3.609,-3.609,0,0,0,-3.5829,-3.5851,-3.5881,-3.5795,-3.5831,-3.5937,-3.5888,-3.5997,-3.6007,-3.6042,-3.6056,-3.6062,-3.6072,-3.6091,-3.6091,-3.6255,-3.6255,0,0,-3.5823,-3.5813,-3.5874,-3.5888,-3.587,-3.5885,-3.5892,-3.6003,-3.6019,-3.6057,-3.6065,-3.6074,-3.6092,-3.6093,-3.6254,-3.6255,0,0,0,-3.5805,-3.5809,-3.5836,-3.5882,-3.5901,-3.5888,-3.5896,-3.6014,-3.6023,-3.6067,-3.6076,-3.6092,-3.6094,-3.6253,-3.6254,-3.6281,0,0,0,-3.5802,-3.5798,-3.5833,-3.5828,-3.5899,-3.5959,-3.5904,-3.6016,-3.6028,-3.6075,-3.6092,-3.6095,-3.6252,-3.6254,-3.6278,-3.6294,0,0,0,-3.5786,-3.5797,-3.5812,-3.5827,-3.5874,-3.5957,-3.5973,-3.6019,-3.6034,-3.609,-3.6096,-3.6252,-3.6254,-3.6276,-3.629,-3.6333,0,0,0,-3.5767,-3.5834,-3.5813,-3.5892,-3.5873,-3.5973,-3.5973,-3.6048,-3.6099,-3.6093,-3.6253,-3.6254,-3.6275,-3.6288,-3.6331,-3.6366,-3.638,0,0,-3.5846,-3.5844,-3.5891,-3.5875,-3.5976,-3.5957,-3.6063,-3.6119,-3.6134,-3.6214,-3.6218,-3.6279,-3.629,-3.6333,-3.6467,-3.6478,0,0,0,-3.5913,-3.5947,-3.5976,-3.6024,-3.6069,-3.6109,-3.6151,-3.6172,-3.624,-3.6173,-3.6307,-3.6314,-3.634,-3.6357,-3.6366,-3.6388,-3.6262,-3.6262,-3.6262,-3.6009,-3.6025,-3.6104,-3.6134,-3.6181,-3.6224,-3.6264,-3.63,-3.6302,-3.6334,-3.6356,-3.6436,-3.6456,-3.6463,-3.6486,-3.6378,-3.6378,-3.6379,-3.6379,-3.6125,-3.6175,-3.6178,-3.6255,-3.6272,-3.6338,-3.6383,-3.6383,-3.6447,-3.642,-3.6443,-3.641,-3.6475,-3.6495,-3.6381,-3.638,-3.638,-3.638,-3.638,-3.6188,-3.6214,-3.624,-3.6312,-3.6366,-3.6395,-3.6456,-3.647,-3.6484,-3.6507,-3.6532,-3.6532,-3.6531,-3.6518,-3.6519,-3.6519,-3.6519,-3.6519,-3.652,-3.6242,-3.627,-3.6319,-3.6374,-3.6408,-3.6454,-3.65,-3.6533,-3.6574,-3.6579,-3.6579,-3.6578,-3.6479,-3.6452,-3.6524,-3.6523,-3.6523,-3.6522,-3.6522,-3.635,-3.6328,-3.6404,-3.6438,-3.6504,-3.6557,-3.6575,-3.6643,-3.6673,-3.6703,-3.6698,-3.6623,-3.6621,-3.6613,-3.6591,-3.6695,-3.6695,-3.6695,-3.6695,-3.6401,-3.6402,-3.6483,-3.6536,-3.659,-3.6614,-3.6701,-3.6739,-3.6774,-3.6794,-3.6782,-3.6755,-3.6747,-3.6749,-3.6739,-3.6718,-3.6852,-3.6852,-3.6852,-3.6467,-3.6475,-3.6544,-3.6578,-3.6632,-3.6678,-3.676,-3.6821,-3.6857,-3.6859,-3.6809,-3.6803,-3.676,-3.6745,-3.6742,-3.6725,-3.6688,0,0]},{"header":{"parameterUnit":"m.s-1","parameterCategory":1,"la1":30.2992,"la2":30.254,"lo1":-89.0895,"lo2":-89.0443,"dy":0.0025,"dx":0.0025,"nx":19,"ny":19,"refTime":"2026-03-07T03:00:00:Z","depth":0,"parameterNumber":3,"parameterNumberName":"V-component_of_WINDS"},"data":[0,0,0,2.0632,2.0633,2.0709,2.0709,2.0789,2.0789,0,0,0,0,0,0,0,0,0,0,0,2.0599,2.0599,2.0632,2.0633,2.0709,2.0709,2.0788,2.0789,0,0,0,0,0,0,0,0,0,0,0,2.0599,2.0599,2.06,2.0634,2.0708,2.0709,2.0788,2.0737,0,0,0,0,0,0,0,0,0,0,2.0667,2.0627,2.0599,2.06,2.0634,2.0708,2.0709,2.0735,2.0741,2.0747,0,2.075,0,2.0771,2.0793,2.0794,0,0,0,2.0641,2.0622,2.0652,2.06,2.0635,2.0708,2.0677,2.0739,2.0744,2.0754,2.0752,2.0755,2.0772,2.0794,2.0794,2.0809,2.0809,0,0,2.0637,2.0607,2.0648,2.0655,2.0643,2.0674,2.0679,2.0742,2.0737,2.0752,2.0757,2.0774,2.0794,2.0795,2.081,2.0809,0,0,0,2.062,2.0603,2.0632,2.0652,2.0667,2.0676,2.0682,2.0735,2.0747,2.0758,2.0775,2.0795,2.0795,2.081,2.081,2.0768,0,0,0,2.0618,2.0594,2.063,2.0612,2.0665,2.0701,2.0672,2.0742,2.075,2.0774,2.0795,2.0796,2.081,2.081,2.077,2.0753,0,0,0,2.0598,2.0592,2.0599,2.0611,2.0642,2.0701,2.0717,2.0745,2.076,2.0794,2.0796,2.0811,2.081,2.0771,2.0756,2.075,0,0,0,2.0568,2.0559,2.0598,2.0594,2.0641,2.0675,2.0717,2.0743,2.0767,2.0795,2.081,2.081,2.0772,2.0757,2.0751,2.0739,2.0732,0,0,2.054,2.0554,2.0555,2.0592,2.0611,2.0665,2.0679,2.0728,2.0758,2.0791,2.0792,2.0769,2.0756,2.075,2.0697,2.069,0,0,0,2.0536,2.0536,2.0548,2.057,2.0609,2.0641,2.0692,2.0711,2.0741,2.0769,2.0766,2.0759,2.0757,2.0752,2.0747,2.0748,2.0806,2.0806,2.0806,2.0452,2.0493,2.0498,2.0548,2.0569,2.0624,2.0645,2.068,2.0713,2.0712,2.0722,2.0685,2.0679,2.0675,2.0676,2.0719,2.0719,2.0718,2.0718,2.0416,2.0423,2.0471,2.0492,2.0536,2.0554,2.0607,2.0631,2.0655,2.068,2.068,2.0705,2.0667,2.0669,2.0716,2.0716,2.0716,2.0717,2.0717,2.0366,2.0377,2.0402,2.0441,2.0466,2.0518,2.054,2.0578,2.0614,2.0614,2.063,2.0631,2.0638,2.0619,2.0619,2.0619,2.0619,2.0619,2.0619,2.0305,2.0335,2.0349,2.0391,2.0413,2.0445,2.0502,2.0524,2.0558,2.0584,2.0585,2.0619,2.0655,2.0664,2.0617,2.0617,2.0618,2.0618,2.0618,2.0254,2.0273,2.0294,2.0315,2.0371,2.0395,2.0445,2.0486,2.051,2.052,2.0556,2.0576,2.0593,2.0598,2.0605,2.0546,2.0546,2.0546,2.0546,2.0213,2.0226,2.0258,2.0291,2.0326,2.0375,2.0399,2.0445,2.0494,2.0512,2.0526,2.0539,2.0542,2.0558,2.0563,2.0571,2.0504,2.0504,2.0504,2.0184,2.0203,2.0216,2.0266,2.0313,2.0353,2.0378,2.0414,2.0474,2.0503,2.0527,2.0529,2.0551,2.0555,2.0584,2.0592,2.0607,0,0]}]]